JST428 YSSY-YMML

Flight info

Callsign JST428
Flight time N/A
Altitude 32000
Route WOL H65 LEECE Q29 ML
Aircraft A320/M-SDE3FGHIRWY/LB1

Departure

Time 2026-05-05 08:22
Airport Sydney Kingsford Smith International Airport (YSSY)

Arrival

Time N/A
Airport Melbourne Airport (YMML)
Time Latitude Longitude Altitude Speed Heading
2026-05-05 07:53 -33.93462 151.17685 30 ft 0 kts 100°
2026-05-05 08:13 -33.93461 151.17673 10 ft 2 kts 101°
2026-05-05 08:13 -33.93457 151.17654 22 ft 2 kts 103°
2026-05-05 08:14 -33.93453 151.17637 41 ft 2 kts 107°
2026-05-05 08:15 -33.93448 151.17618 30 ft 2 kts 114°
2026-05-05 08:15 -33.93440 151.17601 30 ft 2 kts 137°
2026-05-05 08:15 -33.93426 151.17593 36 ft 2 kts 189°
2026-05-05 08:15 -33.93422 151.17594 35 ft 0 kts 192°
2026-05-05 08:19 -33.93423 151.17593 36 ft 1 kts 192°
2026-05-05 08:19 -33.93443 151.17585 29 ft 6 kts 201°
2026-05-05 08:19 -33.93466 151.17518 21 ft 3 kts 258°
2026-05-05 08:19 -33.93474 151.17467 19 ft 9 kts 259°
2026-05-05 08:20 -33.93480 151.17436 18 ft 0 kts 256°
2026-05-05 08:21 -33.93491 151.17384 17 ft 15 kts 256°
2026-05-05 08:21 -33.93553 151.17315 18 ft 12 kts 143°
2026-05-05 08:21 -33.93638 151.17345 16 ft 18 kts 171°
2026-05-05 08:21 -33.94016 151.17441 18 ft 90 kts 167°
2026-05-05 08:22 -33.94815 151.17654 23 ft 140 kts 167°
2026-05-05 08:22 -33.95818 151.17927 324 ft 154 kts 167°
2026-05-05 08:22 -33.96915 151.18063 807 ft 160 kts 181°
2026-05-05 08:22 -33.98022 151.17982 1439 ft 159 kts 184°
2026-05-05 08:23 -33.99146 151.17872 1893 ft 172 kts 184°
2026-05-05 08:23 -34.00422 151.17754 2194 ft 195 kts 184°
2026-05-05 08:23 -34.01853 151.17637 2554 ft 219 kts 184°
2026-05-05 08:23 -34.03448 151.17784 2981 ft 242 kts 167°
2026-05-05 08:24 -34.05120 151.18307 3736 ft 252 kts 166°
2026-05-05 08:24 -34.06826 151.18868 4612 ft 256 kts 166°
2026-05-05 08:24 -34.08554 151.19450 5481 ft 261 kts 167°
2026-05-05 08:24 -34.10326 151.20047 6274 ft 268 kts 167°
2026-05-05 08:25 -34.12147 151.20657 7016 ft 275 kts 167°
2026-05-05 08:25 -34.14006 151.21280 7832 ft 278 kts 167°
2026-05-05 08:25 -34.15879 151.21903 8671 ft 281 kts 167°
2026-05-05 08:25 -34.17800 151.22367 9474 ft 282 kts 180°
2026-05-05 08:26 -34.19741 151.22097 10237 ft 282 kts 199°
2026-05-05 08:26 -34.21540 151.21072 10640 ft 296 kts 218°
2026-05-05 08:26 -34.23013 151.19300 11164 ft 303 kts 231°
2026-05-05 08:26 -34.24370 151.17368 11839 ft 307 kts 230°
2026-05-05 08:27 -34.25769 151.15399 12552 ft 310 kts 230°
2026-05-05 08:27 -34.27187 151.13410 13272 ft 314 kts 230°
2026-05-05 08:27 -34.28615 151.11402 13994 ft 317 kts 230°
2026-05-05 08:27 -34.30059 151.09370 14640 ft 320 kts 230°
2026-05-05 08:28 -34.31515 151.07320 15274 ft 323 kts 230°
2026-05-05 08:28 -34.32987 151.05249 15912 ft 326 kts 231°
2026-05-05 08:28 -34.34473 151.03154 16550 ft 329 kts 231°
2026-05-05 08:28 -34.35968 151.01047 17187 ft 332 kts 231°
2026-05-05 08:29 -34.37518 150.98967 17798 ft 336 kts 225°
2026-05-05 08:29 -34.39291 150.97008 18059 ft 351 kts 224°
2026-05-05 08:29 -34.41128 150.95013 18542 ft 357 kts 224°
2026-05-05 08:30 -34.44886 150.90954 19611 ft 365 kts 224°
2026-05-05 08:30 -34.46789 150.88897 20179 ft 369 kts 224°
2026-05-05 08:30 -34.48715 150.86811 20753 ft 373 kts 224°
2026-05-05 08:30 -34.50655 150.84704 21353 ft 376 kts 225°
2026-05-05 08:31 -34.52611 150.82572 21948 ft 379 kts 225°
2026-05-05 08:31 -34.54582 150.80419 22500 ft 383 kts 225°
2026-05-05 08:31 -34.56414 150.78068 23047 ft 384 kts 234°
2026-05-05 08:31 -34.58006 150.75447 23591 ft 387 kts 236°
2026-05-05 08:32 -34.59602 150.72794 24080 ft 391 kts 236°
2026-05-05 08:32 -34.61211 150.70122 24552 ft 393 kts 236°
2026-05-05 08:32 -34.62810 150.67469 25026 ft 396 kts 237°
2026-05-05 08:32 -34.64439 150.64766 25498 ft 398 kts 237°
2026-05-05 08:33 -34.66080 150.62037 25968 ft 401 kts 237°
2026-05-05 08:33 -34.67732 150.59290 26446 ft 403 kts 237°
2026-05-05 08:33 -34.69395 150.56527 26909 ft 406 kts 237°
2026-05-05 08:33 -34.71068 150.53748 27359 ft 409 kts 237°
2026-05-05 08:34 -34.72752 150.50946 27821 ft 411 kts 238°
2026-05-05 08:34 -34.74440 150.48130 28262 ft 414 kts 238°
2026-05-05 08:34 -34.76138 150.45292 28703 ft 416 kts 238°
2026-05-05 08:34 -34.77845 150.42437 29118 ft 419 kts 238°
2026-05-05 08:35 -34.79563 150.39558 29526 ft 421 kts 238°
2026-05-05 08:35 -34.80706 150.37645 29793 ft 423 kts 238°
2026-05-05 08:35 -34.83029 150.33752 30358 ft 426 kts 238°
2026-05-05 08:35 -34.84772 150.30828 30703 ft 428 kts 238°
2026-05-05 08:36 -34.85930 150.28886 30964 ft 428 kts 238°
2026-05-05 08:36 -34.87675 150.25962 31446 ft 426 kts 238°
2026-05-05 08:36 -34.89414 150.23042 31919 ft 425 kts 239°
2026-05-05 08:36 -34.91149 150.20127 32165 ft 424 kts 239°
2026-05-05 08:37 -34.92876 150.17222 32221 ft 423 kts 239°
2026-05-05 08:37 -34.96326 150.11403 32222 ft 423 kts 239°
2026-05-05 08:38 -34.99774 150.05588 32226 ft 423 kts 238°
2026-05-05 08:38 -35.03198 149.99809 32228 ft 423 kts 238°
2026-05-05 08:39 -35.06639 149.93983 32228 ft 423 kts 239°
2026-05-05 08:39 -35.10075 149.88154 32220 ft 423 kts 238°
2026-05-05 08:40 -35.13511 149.82310 32230 ft 424 kts 238°
2026-05-05 08:40 -35.16947 149.76461 32231 ft 424 kts 238°
2026-05-05 08:41 -35.20388 149.70604 32231 ft 424 kts 238°
2026-05-05 08:41 -35.23823 149.64736 32231 ft 424 kts 238°
2026-05-05 08:42 -35.27253 149.58870 32240 ft 424 kts 238°
2026-05-05 08:42 -35.30678 149.53004 32223 ft 423 kts 238°
2026-05-05 08:43 -35.34092 149.47139 32224 ft 423 kts 238°
2026-05-05 08:43 -35.37510 149.41271 32223 ft 423 kts 238°
2026-05-05 08:44 -35.40921 149.35401 32222 ft 423 kts 238°
2026-05-05 08:44 -35.44316 149.29527 32220 ft 421 kts 238°
2026-05-05 08:45 -35.47704 149.23671 32220 ft 420 kts 238°
2026-05-05 08:45 -35.51071 149.17858 32222 ft 420 kts 238°
2026-05-05 08:46 -35.54452 149.11999 32218 ft 420 kts 238°
2026-05-05 08:46 -35.57824 149.06142 32218 ft 419 kts 238°
2026-05-05 08:47 -35.61187 149.00292 32222 ft 419 kts 238°
2026-05-05 08:47 -35.64545 148.94443 32219 ft 418 kts 238°
2026-05-05 08:48 -35.67896 148.88601 32224 ft 418 kts 238°
2026-05-05 08:48 -35.71244 148.82747 32241 ft 418 kts 238°
2026-05-05 08:49 -35.74586 148.76896 32231 ft 418 kts 238°
2026-05-05 08:49 -35.77901 148.71084 32228 ft 417 kts 238°
2026-05-05 08:50 -35.81235 148.65229 32241 ft 417 kts 238°
2026-05-05 08:50 -35.84562 148.59372 32241 ft 417 kts 238°
2026-05-05 08:51 -35.87886 148.53499 32247 ft 418 kts 237°
2026-05-05 08:51 -35.91217 148.47601 32245 ft 419 kts 237°
2026-05-05 08:52 -35.94541 148.41699 32250 ft 419 kts 237°
2026-05-05 08:52 -35.97855 148.35794 32253 ft 419 kts 237°
2026-05-05 08:53 -36.01180 148.29876 32254 ft 420 kts 237°
2026-05-05 08:53 -36.04510 148.23940 32254 ft 421 kts 237°
2026-05-05 08:54 -36.07842 148.17987 32248 ft 421 kts 237°
2026-05-05 08:54 -36.11169 148.12017 32248 ft 422 kts 237°
2026-05-05 08:55 -36.14482 148.06082 32255 ft 422 kts 237°
2026-05-05 08:55 -36.17844 148.00067 32253 ft 422 kts 237°
2026-05-05 08:56 -36.21160 147.94131 32248 ft 422 kts 237°
2026-05-05 08:56 -36.24504 147.88139 32246 ft 422 kts 237°
2026-05-05 08:57 -36.27836 147.82145 32250 ft 423 kts 236°
2026-05-05 08:57 -36.31176 147.76125 32252 ft 424 kts 236°
2026-05-05 08:58 -36.34515 147.70094 32256 ft 424 kts 236°
2026-05-05 08:58 -36.37828 147.64093 32255 ft 424 kts 236°
2026-05-05 08:59 -36.41155 147.58045 32258 ft 425 kts 236°
2026-05-05 08:59 -36.44486 147.51971 32254 ft 426 kts 236°
2026-05-05 09:00 -36.47822 147.45886 32255 ft 426 kts 236°